• MPC Preparation (Info)

  • MPEC 2024-F32 : 2024 FS

    The following Minor Planet Electronic Circular may be linked-to from your own Web pages, but must not otherwise be redistributed electronically.

    A form allowing access to any MPEC is at the bottom of this page.


    Read MPEC 2024-F31 Read MPEC 2024-F33


    M.P.E.C. 2024-F32                                Issued 2024 March 19, 17:18 UT
    
         The Minor Planet Electronic Circulars contain information on unusual
             minor planets, routine data on comets and natural satellites,
             and occasional editorial announcements.  They are published
        on behalf of Division F of the International Astronomical Union by the
              Minor Planet Center, Smithsonian Astrophysical Observatory,
                              Cambridge, MA 02138, U.S.A.
    			  
                 Prepared using the Tamkin Foundation Computer Network
    
                                  MPC@CFA.HARVARD.EDU
                URL https://www.minorplanetcenter.net/    ISSN 1523-6714
    
                                     2024 FS                                 
    
    
    Observations:
         K24F00S* C2024 03 17.57001314 44 18.695-17 57 11.14         21.37wXEF032F51
         K24F00S  C2024 03 17.58139614 44 18.383-17 58 32.19         21.56wXEF032F51
         K24F00S  C2024 03 17.59278614 44 18.051-17 59 52.93         21.30wXEF032F51
         K24F00S |C2024 03 18.28603014 44 18.300-19 19 48.30         21.0 GVEF032807
         K24F00S  C2024 03 18.28649614 44 18.27 -19 19 51.5                WEF032X09
         K24F00S |C2024 03 18.28947014 44 18.130-19 20 12.70         21.2 GVEF032807
         K24F00S |C2024 03 18.29343014 44 18.000-19 20 39.40         21.1 GVEF032807
         K24F00S  C2024 03 18.30044314 44 17.83 -19 21 28.3                WEF032X09
         K24F00S  C2024 03 18.55429214 44 16.147-19 51 31.42         21.28GVEF032F51
         K24F00S  C2024 03 18.55511014 44 16.116-19 51 36.82         21.42GVEF032F51
         K24F00S 1C2024 03 19.55011414 44 08.048-21 43 06.19         21.68GVEF032T12
         K24F00S 1C2024 03 19.55199414 44 07.980-21 43 18.64         21.88GVEF032T12
    
    Observer details:
    807 Cerro Tololo Observatory, La Serena.  Observers T. Linder, R. Holmes.
        0.61-m f/6.8 Ritchey-Chretien + CCD.
    F51 Pan-STARRS 1, Haleakala.  Observers J. Herman, T. Lowe, P. Minguez, A.
        Schultz, I. Smith.  Measurers K. Chambers, T. de Boer, J. Fairlamb, H.
        Gao, M. Huber, C.-C. Lin, E. Magnier, Y. Ramanjooloo, R. Wainscoat, R.
        Weryk.  1.8-m Ritchey-Chretien + CCD.
    T12 University of Hawaii 88-inch telescope, Maunakea.  Observer J. Fairlamb.
        Measurers R. Weryk, J. Fairlamb, Y. Ramanjooloo, R. Wainscoat.  2.24-m
        f/10.1 reflector + CCD.
    X09 Deep Random Survey, Rio Hurtado.  Observers A. Schnabel, D. Ruhela.
        Measurer S. Deen.  0.43-m reflector + CMOS.
    
    Orbital elements:
    2024 FS                                                  Earth MOID = 0.0826 AU
    Epoch 2024 Mar. 31.0 TT = JDT 2460400.5                 MPC                     
    M  11.12841              (2000.0)            P               Q                  
    n   0.34717414     Peri.  161.09440     -0.95144910     -0.30778341             
    a   2.0049543      Node     1.00292     +0.24763772     -0.77262343             
    e   0.4687258      Incl.   12.33584     +0.18281186     -0.55526787             
    P   2.84           H   24.22          G   0.15           U   8                  
    Residuals in seconds of arc
    240317 F51  0.1-  0.4+    240318 X09  0.2+  0.3-    240318 F51  0.0   0.1-
    240317 F51  0.1+  0.1-    240318 807  0.5-  0.5-    240318 F51  0.1-  0.1+
    240317 F51  0.1+  0.4-    240318 807  0.6-  0.3+    240319 T12  0.0   0.0
    240318 807  0.5+  0.0     240318 X09  0.1-  0.4-    240319 T12  0.1+  0.0
    
    Ephemeris:
    2024 FS                  a,e,i = 2.00, 0.47, 12                  q = 1.0652
    Date    TT    R. A. (2000) Decl.     Delta      r    Elong.  Phase     V
    2024 02 18    14 04 29.0 +40 47 56   0.1501  1.0712   120.0    53.0    22.2
    ...
    2024 03 04    14 35 44.6 +12 33 03   0.1193  1.0667   126.4    48.4    21.6
    ...
    2024 03 12    14 42 56.9 -06 03 50   0.1196  1.0755   130.7    44.5    21.5
    ...
    2024 03 18    14 44 18.3 -18 46 48   0.1283  1.0870   133.1    42.0    21.6
    2024 03 19    14 44 13.1 -20 41 09   0.1304  1.0893   133.4    41.6    21.6
    2024 03 20    14 44 02.7 -22 31 19   0.1326  1.0917   133.7    41.2    21.6
    ...
    2024 03 26    14 41 16.6 -32 01 52   0.1489  1.1084   135.4    39.2    21.9
    ...
    2024 04 03    14 33 28.9 -40 56 07   0.1766  1.1361   137.4    36.6    22.2
    ...
    2024 04 18    14 12 00.0 -48 57 21   0.2415  1.2024   141.4    31.4    22.9
    
    A. U. Tomatic                (C) Copyright 2024 MPC           M.P.E.C. 2024-F32
    


    Read MPEC 2024-F31 Read MPEC 2024-F33


    MPEC number:

    Enter an MPEC number in one of the following forms:

    • 1997-B01 (the full form)
    • J97B01 (the packed version of the full form)
    • B01 (the abbreviated form)